EHI
0 0 0 0 0 0 0 0 0 0 0 0 0 0 0 0 0 1 7 32 70 93 96 92 84 82 88 94 92 88 86 79 71 62 45 29 19 8 4 10 13 7 1 1
0 0 0 0 0 0 0 0 0 0 0 0 0 0 0 0 1 4 13 38 71 88 85 75 63 64 76 86 81 77 77 64 54 53 41 26 18 7 3 12 23 23 14 9
0 0 0 0 0 0 0 0 0 0 0 0 0 0 0 3 8 14 25 46 63 66 56 43 34 42 61 72 66 65 67 48 37 39 29 20 16 8 8 20 41 50 39 26
0 0 0 0 0 0 0 0 0 0 0 0 0 0 3 13 27 33 35 38 40 32 23 20 24 37 54 63 63 68 67 54 45 40 35 37 36 29 32 45 62 71 57 40
0 0 0 0 0 0 0 0 0 0 0 0 0 0 8 29 49 48 32 21 16 11 8 12 24 37 46 53 58 64 67 67 67 64 66 73 72 65 68 76 82 82 68 55
0 0 0 0 0 0 0 0 0 0 0 0 0 0 11 36 55 45 22 8 5 5 6 9 16 23 28 30 35 42 50 57 63 70 78 87 90 90 91 93 93 90 79 69
0 0 0 0 0 0 0 0 0 0 0 0 0 3 13 29 35 26 11 3 2 3 4 5 6 8 10 10 12 18 25 30 33 39 50 62 74 82 87 89 92 94 88 79
0 0 0 0 0 0 0 0 0 0 0 0 1 6 13 12 10 7 3 1 1 1 1 1 1 1 2 2 2 4 9 11 10 11 15 24 36 48 58 68 79 89 91 88
0 0 0 0 0 0 0 0 0 0 0 0 2 9 10 5 0 0 0 0 0 0 0 0 0 0 0 0 0 0 2 3 3 1 1 3 8 15 22 35 51 67 77 83
0 0 0 0 0 0 0 0 0 0 0 0 2 8 13 8 2 0 0 0 0 0 0 0 0 0 0 0 0 0 0 1 1 0 0 0 0 1 4 10 22 34 45 54
0 0 0 0 0 0 0 0 0 0 0 0 0 5 12 10 3 0 0 0 0 0 0 0 0 0 0 0 0 0 0 0 0 0 0 0 0 0 0 1 5 10 16 21
0 0 0 0 0 0 0 0 0 0 0 0 0 2 5 5 2 0 0 0 0 0 0 0 0 0 0 0 0 0 0 0 0 0 0 0 0 0 0 0 0 1 3 4
0 0 0 0 0 0 0 0 0 0 0 0 0 0 0 0 0 0 0 0 0 0 0 0 0 0 0 0 0 0 0 0 0 0 0 0 0 0 0 0 0 0 0 0
0 0 0 0 0 0 0 0 0 0 0 0 0 0 0 0 0 0 0 0 0 0 0 0 0 0 0 0 0 0 0 0 0 0 0 0 0 0 0 0 0 0 0 0
0 0 0 0 0 0 0 0 0 0 0 0 0 0 0 0 0 0 0 0 0 0 0 0 0 0 0 0 0 0 0 0 0 0 0 0 0 0 0 0 0 0 0 0
0 0 0 0 0 0 0 0 0 0 0 0 0 0 0 0 0 0 0 0 0 0 0 0 0 0 0 0 0 0 0 0 0 0 0 0 0 0 0 0 0 0 0 0
0 0 0 0 0 0 0 0 0 0 0 0 0 0 0 0 0 0 0 0 0 0 0 0 0 0 0 0 0 0 0 0 0 0 0 0 0 0 0 0 0 0 0 0
0 0 0 0 0 0 0 0 0 0 0 0 0 0 0 0 0 0 0 0 0 0 0 0 0 0 0 0 0 0 0 0 0 0 0 0 0 0 0 0 0 0 0 0
0 0 0 0 0 0 0 0 0 0 0 0 0 0 0 0 0 0 0 0 0 0 0 0 0 0 0 0 0 0 0 0 0 0 0 0 0 0 0 0 0 0 0 0
0 0 0 0 0 0 0 0 0 0 0 0 0 0 0 0 0 0 0 0 0 0 0 0 0 0 0 0 0 0 0 0 0 0 0 0 0 0 0 0 0 0 0 0
0 0 0 0 0 0 0 0 0 0 0 0 0 0 0 0 0 0 0 0 0 0 0 0 0 0 1 1 1 1 0 0 0 0 0 0 0 0 0 0 0 0 0 0
0 0 0 0 0 0 0 0 0 0 0 0 0 0 0 0 0 0 0 0 0 0 0 0 0 0 1 2 2 1 0 0 0 0 0 0 0 0 0 0 0 0 0 0
0 0 0 0 0 0 0 0 0 0 0 0 0 0 0 0 0 0 0 0 0 0 0 0 0 0 1 1 1 0 0 0 0 0 0 0 0 0 0 0 0 0 0 0
0 0 0 0 0 0 0 0 0 0 0 0 0 0 0 0 0 0 0 0 0 0 0 0 0 0 0 0 0 0 0 0 0 0 0 0 0 0 0 0 0 0 0 0
0 0 0 0 0 0 0 0 0 0 0 0 0 0 0 0 0 0 0 0 0 0 0 0 0 0 0 0 0 0 0 0 0 0 0 0 0 0 0 0 0 0 0 0
0 0 0 0 0 0 0 0 0 0 0 0 0 0 0 0 0 0 0 0 0 0 0 0 0 0 0 0 0 0 0 0 0 0 0 0 0 0 0 0 0 0 0 0
Wind_Speed
9 7 7 7 7 10 11 14 14 9 5 1 7 13 12 4 5 11 10 6 10 9 6 6 5 7 7 8 10 7 6 4 3 3 4 3 3 2 2 3 6 2 3 1
2 3 8 8 7 11 10 11 12 11 9 8 9 13 16 10 8 8 9 5 5 6 8 8 1 6 7 8 6 5 6 5 5 4 3 2 2 1 0 1 4 4 3 2
7 4 5 7 9 11 11 9 11 12 11 12 14 17 17 16 9 4 3 12 9 14 12 6 3 5 7 8 6 4 5 6 4 7 4 3 2 2 3 4 4 5 4 2
7 4 5 8 9 11 10 6 9 12 12 12 13 12 10 4 5 13 17 15 15 22 19 16 14 11 9 7 6 6 2 4 4 4 4 5 4 3 2 2 2 3 3 3
6 6 6 6 6 10 11 10 12 15 14 13 13 12 4 9 13 17 17 15 16 18 13 10 12 14 15 16 15 16 13 8 5 3 4 2 2 3 3 2 4 4 4 5
15 5 4 4 8 10 9 11 15 14 9 5 11 15 3 8 11 14 16 16 14 14 10 7 9 12 13 14 15 14 12 14 15 14 11 8 7 7 7 5 4 3 4 5
19 10 6 3 8 10 12 11 9 7 1 5 12 13 2 10 13 14 15 15 13 13 11 10 12 13 13 14 13 12 11 11 12 13 13 12 10 8 7 7 7 5 3 3
6 11 7 4 6 9 10 9 9 12 10 4 14 6 8 11 11 12 13 12 12 12 11 11 11 11 11 11 11 11 9 8 8 8 8 8 10 7 7 9 9 7 3 2
7 8 10 6 3 4 7 10 15 12 13 12 2 9 8 5 7 8 9 9 8 8 7 7 6 6 7 7 7 7 7 7 8 8 8 6 6 6 6 6 7 7 8 7
9 13 13 11 8 4 5 8 7 7 10 13 10 5 4 8 5 5 6 8 8 8 8 7 6 6 6 6 5 5 5 5 6 6 7 8 8 7 8 7 5 5 6 7
15 13 13 12 9 10 6 9 8 7 9 11 13 6 7 8 8 8 9 9 9 10 10 9 9 9 9 9 7 5 6 5 5 5 5 6 6 6 7 8 8 7 5 5
12 12 12 13 11 13 12 8 7 7 9 10 13 6 9 9 8 8 8 9 10 11 12 12 11 10 10 10 9 8 7 7 6 5 6 6 7 6 7 8 8 9 9 6
10 8 11 6 2 6 9 9 9 8 8 9 10 3 0 1 4 7 10 11 12 13 13 13 12 10 9 9 9 10 10 10 9 7 7 8 9 8 8 8 8 8 9 10
3 7 10 14 16 15 13 11 9 8 8 11 13 6 2 3 8 12 13 14 15 15 15 14 12 11 11 11 11 11 12 12 11 11 10 10 11 11 10 8 8 9 10 10
5 9 14 17 18 15 10 11 13 12 11 11 15 18 11 9 11 13 14 15 16 18 17 14 12 10 9 8 8 8 9 9 9 9 10 11 12 12 12 10 9 10 10 12
11 10 14 17 15 4 10 12 11 11 11 13 15 15 10 11 13 16 17 18 20 20 15 10 8 8 8 7 8 9 9 8 8 8 8 9 10 12 12 12 11 11 11 11
10 12 12 12 14 8 8 11 12 12 13 14 18 16 14 14 17 19 21 23 20 17 19 18 15 11 8 9 8 9 8 8 8 8 10 10 10 11 11 12 11 11 11 10
7 9 7 10 11 7 7 6 9 12 14 16 14 15 16 18 18 18 19 18 20 22 22 19 17 16 14 13 12 9 11 10 10 10 10 11 11 13 11 11 10 10 9 8
6 6 7 8 12 4 6 9 14 16 16 12 13 17 20 22 22 19 18 22 22 21 19 17 19 20 16 14 13 13 12 11 11 12 12 13 13 13 13 13 11 10 9 8
11 8 7 10 12 9 8 13 16 16 9 14 20 21 22 24 20 17 21 23 22 20 18 18 19 19 15 12 12 13 15 14 14 13 12 13 13 14 15 14 11 11 9 8
11 10 10 10 12 6 9 15 16 12 13 20 21 22 23 21 20 22 24 23 21 20 18 18 17 16 13 11 12 13 14 15 13 11 12 13 13 14 15 14 11 10 11 11
7 8 9 8 9 7 14 14 12 13 16 19 21 22 22 22 23 23 22 21 21 21 20 20 15 14 11 10 11 13 14 13 11 12 15 15 13 15 15 12 11 10 9 9
5 6 5 6 8 9 13 13 14 16 19 19 21 23 23 24 25 25 23 21 21 21 19 18 17 15 11 10 12 16 16 15 15 16 17 16 15 13 13 13 12 9 8 7
6 2 6 7 9 13 13 14 17 18 19 21 22 23 24 25 26 26 23 22 21 20 19 19 19 18 17 15 15 15 15 16 17 18 17 14 14 13 12 10 9 9 8 7
2 5 8 11 11 13 12 16 18 19 20 22 22 23 24 25 25 25 22 21 21 20 19 19 19 19 20 18 18 17 16 15 16 15 14 13 12 12 11 9 8 9 7 5
5 6 6 7 11 13 16 18 19 20 21 22 23 24 23 23 24 25 23 20 20 20 19 19 19 19 19 19 18 17 15 13 13 13 12 9 8 8 8 7 7 9 9 8
Wind_Direction
257 253 293 339 338 322 311 316 324 328 14 333 278 289 291 227 254 279 265 209 188 179 143 95 109 115 113 110 121 151 178 162 163 153 166 178 165 169 153 147 125 154 241 288
261 348 320 321 309 303 312 316 312 316 333 307 281 277 281 266 217 246 268 244 194 144 105 87 80 108 117 110 115 128 130 156 186 128 105 95 67 297 152 108 153 188 225 249
315 211 253 292 305 311 313 330 329 319 308 290 280 270 262 258 228 187 2 17 32 58 34 55 38 59 108 123 140 148 142 166 185 144 161 147 161 233 221 206 197 191 196 214
310 325 306 309 322 321 311 319 307 300 290 280 280 283 275 266 81 56 51 53 53 54 37 10 17 23 43 56 62 62 63 195 176 175 218 187 189 216 220 196 198 150 178 212
298 297 295 301 312 296 298 309 298 288 281 281 306 292 16 64 70 61 65 65 69 69 61 23 23 30 36 40 44 41 10 353 344 285 292 303 254 249 244 206 186 170 211 212
305 274 262 293 302 305 309 291 278 270 276 316 334 311 27 55 60 74 73 70 70 80 82 53 34 34 34 37 41 46 30 21 12 5 356 344 322 317 316 313 291 223 218 202
331 293 254 273 329 345 331 314 302 309 78 207 213 253 127 74 61 69 74 76 76 75 68 51 39 35 33 33 36 39 34 24 18 16 14 11 359 338 317 305 283 252 241 232
269 283 290 328 350 329 322 315 303 321 319 281 194 218 99 88 79 75 73 68 65 65 63 52 39 33 26 25 25 25 23 18 15 16 11 18 18 11 2 350 336 326 316 312
247 301 321 323 311 300 321 330 330 321 307 307 122 121 112 106 94 81 75 69 60 53 54 50 37 30 20 16 15 6 356 352 354 359 355 358 2 355 350 349 357 353 348 336
322 318 316 310 288 223 262 311 312 313 317 317 320 137 141 170 131 84 57 44 30 18 18 18 11 6 357 349 348 339 327 329 333 349 351 343 340 338 333 329 336 348 349 344
328 314 307 309 333 326 317 319 316 316 318 320 316 53 36 67 46 32 36 22 360 346 344 342 340 342 337 331 326 322 314 312 314 322 322 314 313 322 322 316 317 318 315 324
340 332 320 315 12 342 312 310 314 313 314 309 306 57 27 39 29 8 345 336 330 328 325 320 319 320 322 322 319 315 308 300 293 292 288 285 286 284 282 287 296 305 305 298
345 325 310 316 46 255 284 306 318 325 310 309 318 52 337 341 327 323 321 321 318 313 308 304 301 298 296 294 292 291 291 289 283 273 266 272 273 273 270 273 278 282 291 298
296 292 296 308 316 324 326 335 353 349 339 331 339 355 246 327 344 339 330 320 315 311 305 295 285 275 266 261 260 263 267 266 264 259 255 257 261 265 266 262 262 269 272 276
331 320 326 317 313 323 5 26 22 18 10 339 336 331 2 20 346 327 315 310 308 302 293 283 276 272 269 268 267 271 269 270 269 266 257 254 256 259 263 260 254 256 259 263
345 334 320 310 311 33 65 39 22 14 3 343 328 322 6 353 331 317 317 318 312 309 319 324 311 301 306 315 315 311 301 295 288 285 284 278 268 261 259 255 252 251 252 255
0 344 321 303 308 300 64 26 12 0 349 333 320 328 343 332 320 321 325 315 317 339 336 325 318 313 308 302 291 282 287 292 294 296 299 298 292 286 277 266 252 246 248 250
13 338 302 303 328 8 67 24 358 340 331 336 353 357 340 325 325 323 312 324 339 328 321 317 314 312 305 301 299 294 296 289 289 293 295 295 296 297 296 290 273 255 250 251
17 346 309 333 337 25 99 27 1 334 321 25 356 336 331 330 319 312 330 334 320 314 313 310 308 304 301 297 293 289 288 287 287 288 290 292 287 286 289 289 290 285 268 256
359 327 314 349 333 353 45 9 349 321 299 14 346 335 331 326 319 321 326 318 315 314 309 303 300 297 294 291 291 286 285 284 281 282 288 292 288 282 279 276 280 287 283 269
344 343 358 343 324 63 17 357 347 334 330 335 331 329 324 322 314 312 315 316 313 308 304 302 298 297 294 291 290 286 291 290 284 286 294 293 287 282 279 272 265 268 271 270
351 354 357 334 330 8 4 355 353 329 326 329 327 322 319 316 312 312 313 312 309 308 308 307 303 300 297 298 301 303 304 306 302 298 295 292 284 279 277 273 264 258 260 266
37 39 331 333 320 340 2 350 345 339 330 325 322 320 318 316 316 316 314 312 313 314 313 312 311 309 309 312 317 311 310 309 303 296 290 286 280 273 271 271 268 263 255 254
100 25 307 313 310 345 349 345 339 332 326 324 323 322 322 319 318 316 316 316 317 319 321 322 322 319 317 320 318 309 303 299 293 287 284 280 275 269 264 261 261 261 255 247
5 336 329 310 344 341 333 335 331 326 327 325 326 326 323 320 319 320 320 322 326 328 330 332 326 321 318 316 308 300 295 290 285 283 279 274 268 265 261 256 253 256 247 217
38 15 340 321 332 320 323 330 327 330 330 331 329 327 326 326 324 324 325 329 331 330 333 329 323 318 313 308 302 297 291 284 281 280 275 269 266 263 256 253 258 245 231 209